Theta_e
321 321 322 322 322 322 322 322 322 323 323 324 324 324 323 323 322 323 317 321 325 338 338 326 324 323 326 326 327 327 316 314 315 315 319 327 325 332 337 334 334 337 336 339 343
321 322 322 322 321 321 321 321 322 322 322 323 323 323 322 322 325 320 327 340 337 342 325 320 318 322 323 323 324 320 313 317 322 323 322 325 326 329 329 330 331 333 338 340 341
321 321 321 321 321 321 321 321 321 322 322 322 322 322 322 323 324 318 337 340 340 336 325 321 323 322 320 322 322 324 316 322 323 325 327 326 326 330 327 325 331 330 332 336 336
321 321 321 321 321 320 320 320 321 322 322 321 322 323 322 327 312 324 341 341 341 329 323 320 321 318 318 317 321 320 324 325 326 327 327 326 329 328 331 331 334 334 335 335 333
320 320 320 320 320 320 319 320 320 320 320 321 322 323 323 321 319 329 343 339 327 322 318 319 319 318 315 316 319 322 324 326 327 327 329 329 326 327 328 333 335 335 335 332 328
319 319 319 319 319 319 319 318 318 319 319 322 324 322 324 314 329 328 326 324 321 319 319 321 319 319 316 317 320 325 325 326 328 328 328 326 326 327 329 333 331 332 330 328 327
319 319 319 319 319 319 319 318 317 318 321 324 324 325 319 317 328 331 326 322 322 319 318 320 319 317 320 319 327 326 322 325 326 327 326 328 321 324 329 330 327 325 326 326 328
319 318 318 318 319 319 319 318 317 319 323 324 324 327 316 325 330 328 327 323 322 322 321 321 320 320 322 326 324 321 322 317 324 326 326 325 317 326 330 328 325 325 326 326 328
319 318 318 318 318 318 317 317 318 321 325 325 328 326 314 321 322 324 325 318 320 319 320 319 319 320 325 319 315 319 311 315 319 326 325 322 320 326 330 328 326 325 326 327 329
319 318 317 317 318 317 316 316 323 321 323 326 324 318 318 316 321 320 323 320 317 316 316 315 316 318 318 316 308 311 311 314 315 323 323 320 319 326 327 328 327 326 326 327 327
319 318 317 317 317 316 318 323 318 318 321 316 316 314 316 321 322 317 320 317 315 314 310 313 310 310 314 317 317 313 314 311 315 323 320 318 320 324 327 326 326 325 326 326 327
318 318 318 317 317 316 318 314 312 314 309 318 317 316 317 319 314 315 318 312 310 307 312 310 307 315 318 318 317 314 310 310 317 322 319 316 317 324 326 326 327 326 326 325 326
318 317 317 317 316 317 317 314 318 319 312 315 317 316 316 318 314 312 314 314 311 308 310 309 311 315 314 313 314 313 310 310 311 319 320 316 314 320 326 328 328 327 327 327 326
316 316 316 315 314 317 317 317 319 322 309 309 311 314 316 317 312 318 317 314 311 308 311 310 314 311 311 309 311 308 313 311 311 313 307 319 304 318 323 324 326 327 327 325 327
314 315 316 315 319 314 316 319 320 322 298 311 311 320 317 313 313 315 317 315 309 309 310 308 309 307 307 309 312 308 313 311 311 312 311 313 310 313 323 321 323 327 327 325 327
314 314 315 320 322 319 319 319 319 306 298 306 310 309 310 312 313 315 313 316 315 310 311 310 313 310 309 312 312 313 311 312 314 312 305 310 311 311 319 322 325 327 327 326 327
314 315 315 322 316 321 319 314 305 301 311 305 305 309 309 309 311 312 309 307 306 303 304 308 308 310 312 309 312 312 311 305 303 303 302 313 312 313 323 324 326 326 326 329 331
312 312 319 323 323 321 317 307 300 304 306 312 309 308 306 310 310 310 309 305 309 308 306 303 300 308 312 311 311 313 313 305 297 299 301 314 307 316 326 327 328 329 328 329 328
310 322 324 323 322 319 310 300 302 306 311 308 310 307 305 308 309 310 309 308 309 310 304 304 304 311 312 316 317 313 310 316 308 309 304 308 314 323 326 326 326 328 328 326 326
316 320 319 322 321 315 305 299 306 309 309 310 307 309 306 305 305 308 308 312 310 311 313 310 304 310 312 315 316 314 317 308 308 300 299 305 308 311 319 321 324 326 324 325 326
316 314 318 320 321 309 301 304 306 308 309 309 309 307 308 306 306 307 308 311 313 311 313 312 311 310 312 308 308 311 311 312 312 310 303 301 306 321 322 324 324 325 324 324 324
317 308 319 320 305 306 303 306 299 306 310 309 311 311 309 308 307 307 307 311 314 314 308 312 312 308 308 314 315 315 311 312 307 306 309 307 308 321 323 325 327 325 325 325 325
312 311 319 319 301 303 307 306 307 306 307 308 309 313 314 311 307 308 310 314 314 312 310 314 310 306 307 311 313 310 313 313 315 315 307 304 306 320 322 324 326 325 325 324 323
312 304 311 311 312 309 305 305 305 308 307 309 311 315 312 311 313 310 309 312 314 312 319 318 314 310 304 308 311 308 310 313 313 307 308 307 311 317 319 321 324 325 324 323 322
312 308 311 302 304 309 310 307 304 304 309 310 310 311 313 311 310 310 313 313 314 311 316 318 311 313 313 312 311 310 310 311 310 311 308 310 309 315 319 321 324 325 324 322 320
307 306 310 309 310 307 305 308 306 307 308 307 310 313 314 314 315 311 314 314 313 318 316 319 314 315 310 311 311 308 310 311 311 311 311 310 309 316 321 324 324 324 322 321 320
314 315 309 305 308 307 307 308 308 310 311 312 313 314 313 317 321 322 324 325 323 318 317 318 315 313 307 310 310 306 310 311 312 314 313 307 315 318 319 320 322 323 322 322 321
Wind_Speed
14 14 14 17 18 19 19 20 21 19 17 16 15 13 12 9 9 9 13 3 6 14 5 13 11 12 13 14 13 13 12 10 17 12 16 10 14 11 14 12 17 21 19 15 13
14 14 13 16 19 19 19 19 20 19 17 15 15 12 11 7 11 14 7 9 15 14 12 14 14 13 13 14 8 6 16 17 15 16 14 10 14 12 12 14 16 16 14 13 13
14 14 16 15 18 20 20 21 20 21 18 16 15 12 9 9 12 8 8 11 11 15 16 14 12 14 14 10 9 2 6 14 7 17 14 12 12 9 11 14 13 13 14 13 11
16 16 14 16 17 20 20 21 20 22 19 16 14 10 6 10 2 10 8 11 11 16 17 14 12 15 13 11 5 2 11 12 14 11 12 13 11 13 16 14 12 12 14 12 12
16 18 18 15 16 18 20 20 20 20 18 16 14 7 8 11 5 12 10 10 13 14 15 15 14 18 9 5 9 7 9 10 11 9 12 10 11 12 14 12 12 12 12 12 13
16 18 19 20 18 20 21 20 19 19 17 14 11 4 9 15 8 14 15 16 14 15 14 14 7 8 4 6 6 12 10 12 11 12 10 13 14 9 12 13 12 12 12 12 13
15 17 19 21 22 22 23 22 20 18 16 10 6 6 11 3 5 13 14 16 13 15 12 6 2 12 7 6 6 13 12 13 13 13 11 10 10 11 13 13 13 13 11 12 12
15 17 19 21 23 24 25 23 21 16 11 7 7 8 4 4 6 13 16 15 11 12 9 7 6 10 8 7 9 15 14 17 16 14 9 11 10 14 14 14 14 13 12 12 11
16 16 18 21 24 25 26 24 20 11 8 7 9 9 6 4 10 12 13 14 13 9 2 5 10 4 4 12 11 14 12 9 11 15 12 14 10 15 13 13 13 13 13 12 12
16 16 18 21 24 27 27 24 5 5 8 11 8 8 8 12 8 11 12 9 14 13 11 11 10 10 10 14 16 11 15 24 12 15 11 12 9 15 14 14 13 14 14 12 10
16 17 18 21 24 28 18 6 6 8 11 13 2 5 7 7 8 13 15 12 15 15 15 17 15 18 19 20 21 8 8 10 5 15 10 12 11 11 16 15 14 14 14 12 10
16 18 19 21 23 27 15 7 7 7 11 13 10 10 3 4 10 14 18 14 14 17 21 15 20 20 19 19 19 8 16 13 10 8 9 11 12 14 18 17 15 15 14 14 9
16 17 20 23 25 14 6 6 8 5 9 8 12 15 12 12 11 18 20 20 17 20 20 17 18 21 18 16 19 13 18 14 8 9 11 12 16 15 17 18 17 14 12 13 14
15 16 18 24 10 9 0 6 10 3 8 14 12 10 10 14 13 17 22 19 14 18 16 16 12 11 12 16 13 19 15 15 15 7 12 14 12 20 18 19 19 18 16 16 14
17 17 18 8 13 8 8 9 9 5 8 14 11 10 14 19 10 17 22 22 17 17 13 15 13 7 12 18 19 16 14 13 14 12 19 13 9 3 19 19 19 18 16 16 15
17 16 18 4 10 10 8 11 6 8 6 8 10 13 16 19 11 20 20 22 17 17 15 17 9 14 17 16 16 13 7 14 10 13 18 12 13 8 16 16 18 18 16 16 16
15 15 11 11 8 12 9 8 8 12 8 10 15 17 20 14 15 18 22 23 18 17 17 17 12 13 14 10 11 15 14 11 11 13 13 10 10 8 13 5 15 17 17 20 15
16 16 12 11 11 10 8 8 10 8 7 6 4 13 18 20 16 19 21 20 23 19 14 16 18 20 12 18 13 19 16 14 5 13 12 24 6 10 12 8 12 16 18 15 15
19 12 12 9 2 6 9 11 9 3 6 3 10 11 14 15 15 18 20 20 23 23 20 15 17 23 19 19 19 19 17 21 12 13 11 12 10 8 10 11 11 18 17 17 15
8 11 11 9 5 7 10 16 9 3 5 9 12 14 16 16 17 18 17 17 18 23 20 8 11 18 18 17 19 13 10 11 10 15 12 4 10 10 12 12 15 19 18 17 15
8 7 9 6 6 9 12 17 13 2 5 7 6 4 10 16 18 15 16 11 20 19 19 12 9 12 13 15 17 12 16 9 11 4 12 11 7 6 11 12 16 18 18 17 16
10 8 6 7 9 10 13 15 6 10 7 6 6 12 7 7 11 18 16 13 15 19 23 18 8 8 17 15 11 11 17 16 9 11 6 6 5 2 7 14 15 18 18 17 16
7 7 6 7 9 12 15 15 7 12 9 5 6 8 7 5 6 15 8 7 8 20 22 15 7 12 10 9 8 12 11 12 7 5 14 14 4 6 6 12 14 17 18 16 15
7 5 6 8 14 13 14 13 15 13 12 8 10 10 8 10 10 7 15 7 9 18 8 12 13 16 10 16 16 16 17 9 8 8 13 3 8 11 9 12 13 16 16 16 14
6 6 5 9 13 14 13 10 16 10 12 9 10 14 10 8 13 15 11 12 8 9 8 8 14 13 10 3 2 6 10 10 8 14 9 14 11 10 7 12 14 16 16 16 14
4 5 5 11 5 17 9 13 13 15 7 13 13 14 6 11 7 5 11 9 15 8 14 12 11 12 7 5 6 8 7 7 8 6 8 5 9 6 9 11 14 16 16 16 14
5 8 8 6 10 11 13 16 14 10 9 15 11 4 11 4 8 13 12 9 10 12 14 14 7 9 12 7 9 10 7 7 7 6 9 9 11 10 10 12 14 15 15 14 14
Wind_Direction
340 341 333 325 322 322 320 316 313 314 314 314 306 308 303 297 285 221 218 195 160 166 198 180 203 211 224 246 244 256 285 102 104 96 112 143 96 76 77 78 58 57 83 104 119
338 332 332 326 320 320 317 313 311 311 315 314 311 311 297 292 250 224 120 99 144 162 204 184 191 195 208 225 213 249 297 76 86 109 110 89 100 121 122 107 98 102 110 126 148
331 330 329 326 320 317 317 315 314 312 322 319 313 306 293 272 257 127 142 138 163 181 223 202 193 205 226 190 212 236 210 97 91 90 103 108 112 131 137 126 136 122 123 140 142
326 327 325 323 319 316 314 315 315 316 319 315 305 295 281 247 263 97 140 156 179 208 233 210 207 219 223 202 159 126 86 97 97 120 127 101 95 66 62 73 108 122 127 135 144
324 323 323 323 317 314 312 314 314 313 315 311 301 296 258 228 85 121 145 157 186 213 210 197 206 234 216 138 182 152 119 118 134 130 104 138 103 103 104 114 113 121 142 139 110
323 321 321 322 323 317 314 314 313 310 315 309 291 231 247 253 115 143 169 171 209 208 204 205 232 316 287 165 219 128 148 143 151 122 134 118 128 126 123 125 128 149 133 126 124
320 320 322 321 322 319 316 316 311 308 312 300 246 253 262 19 132 160 174 191 211 213 192 196 246 257 171 149 182 148 153 156 157 155 152 145 154 121 140 147 143 143 140 133 130
318 319 321 320 320 318 316 313 307 302 289 265 235 258 280 75 131 172 180 194 203 224 235 146 208 252 266 99 154 179 174 187 168 160 142 234 127 134 161 165 160 159 153 150 148
316 320 321 320 319 317 313 307 298 279 246 232 234 227 223 146 188 171 185 181 184 181 172 165 209 182 162 175 205 214 213 182 163 167 143 223 113 150 180 186 172 175 168 167 151
315 319 321 320 318 314 314 292 302 229 221 223 261 254 192 206 140 163 189 215 180 186 173 201 196 190 206 203 215 221 224 213 160 166 201 198 245 149 182 202 186 187 181 178 160
317 318 319 319 317 312 320 276 224 185 234 279 329 269 117 97 154 181 171 186 202 196 204 202 208 207 195 230 253 319 263 292 145 120 195 246 199 189 180 213 199 192 197 162 178
318 318 319 318 314 310 288 25 40 331 296 278 242 238 189 217 186 178 180 183 203 207 212 187 220 207 207 220 246 260 280 268 79 108 244 245 228 191 187 207 214 199 200 152 164
317 320 320 316 313 289 335 32 317 318 260 221 217 228 193 198 201 173 193 203 198 213 210 213 217 234 216 217 230 238 246 255 243 142 241 264 255 201 200 191 216 203 192 160 170
321 324 322 321 296 337 188 336 336 358 265 156 197 203 177 195 216 184 194 206 202 218 213 232 224 236 202 230 222 243 228 258 273 199 269 185 298 185 190 192 206 202 197 153 155
317 323 320 320 308 299 10 326 341 242 250 152 136 114 176 202 177 198 189 207 222 218 226 219 246 220 239 234 230 244 269 275 236 223 262 220 250 176 173 194 203 209 201 151 153
314 318 326 279 252 265 304 316 260 232 229 150 150 180 172 206 161 171 190 219 232 225 224 246 185 233 226 240 234 249 229 249 236 238 235 265 223 150 167 199 197 198 201 147 168
305 304 295 303 274 345 315 270 229 248 124 153 180 168 187 186 195 162 188 201 216 226 218 216 224 237 234 236 219 220 207 210 218 236 254 223 214 100 133 159 181 183 171 157 163
302 305 263 251 283 306 284 234 252 219 166 91 191 190 195 182 195 187 190 200 216 220 219 217 205 221 177 230 204 205 200 259 230 263 146 241 245 99 118 130 152 170 149 149 169
313 270 234 238 247 254 243 222 221 274 75 216 195 210 200 200 207 197 203 210 197 220 227 217 237 183 201 221 214 195 234 245 304 288 273 279 81 123 132 143 163 150 142 165 173
304 293 255 132 192 229 236 247 272 15 336 242 249 209 189 197 203 209 198 210 218 199 227 259 225 179 189 215 233 264 232 238 230 270 287 312 238 91 170 162 168 142 162 163 153
262 244 103 200 193 224 229 226 228 180 291 281 272 235 272 181 203 216 219 202 208 195 219 232 242 173 177 214 219 207 244 232 286 239 262 310 73 73 159 165 161 156 162 160 160
268 239 118 180 213 222 228 232 27 275 218 261 279 289 289 244 217 235 210 212 189 215 201 214 245 215 202 201 258 275 237 248 248 258 322 276 333 59 109 146 160 162 160 157 164
263 261 147 225 226 222 222 241 235 257 236 238 253 247 205 278 257 229 224 237 192 203 198 191 225 237 154 194 204 247 232 264 276 319 281 288 84 145 126 130 161 164 154 159 157
273 225 172 205 262 295 208 215 228 215 259 262 282 304 256 245 242 246 225 154 220 218 94 202 228 236 222 226 200 208 239 228 240 259 285 127 181 140 137 144 162 154 154 161 162
261 260 348 198 219 234 262 211 223 210 215 213 247 245 243 256 218 220 231 162 203 140 199 195 235 233 248 310 234 184 213 227 237 259 285 324 349 96 136 157 168 156 162 160 168
288 304 230 278 281 210 210 236 232 208 223 208 238 219 254 248 316 319 241 206 185 174 216 200 239 232 189 185 183 210 219 241 276 303 279 291 288 95 125 153 166 165 173 170 174
299 288 285 236 213 234 218 229 217 237 212 264 225 343 258 343 351 309 298 306 317 174 191 191 214 222 204 196 228 232 237 251 273 259 285 311 74 123 149 172 176 173 179 175 172